• In Deutschland
  • Länderverzeichnis
  • Für 7 Tage
  • Wassertemperatur
  • Satellitenkarten
  • Wetterkarte
  • Widgets
  • user-avatar
    Anmelden

    Stündliche Wetter Jewłach

    Heute, 24 August, Donnerstag

    Zeit Temperatur Niederschläge Wind Luftdruck Luftfeuchtigkeit
    00:00 +28°C° 0 mm 1 m/S 758 mmHg 32%
    01:00 +28°C° 0 mm 1 m/S 759 mmHg 32%
    02:00 +28°C° 0 mm 1 m/S 759 mmHg 33%
    03:00 +27°C° 0 mm 2 m/S 759 mmHg 33%
    04:00 +27°C° 0 mm 2 m/S 759 mmHg 34%
    05:00 +27°C° 0 mm 2 m/S 760 mmHg 34%
    06:00 +27°C° 0 mm 2 m/S 760 mmHg 35%
    07:00 +30°C° 0 mm 2 m/S 760 mmHg 30%
    08:00 +32°C° 0 mm 2 m/S 760 mmHg 26%
    09:00 +35°C° 0 mm 2 m/S 760 mmHg 21%
    10:00 +37°C° 0 mm 3 m/S 760 mmHg 19%
    11:00 +38°C° 0 mm 4 m/S 760 mmHg 16%
    12:00 +41°C° 0 mm 5 m/S 759 mmHg 13%
    13:00 +41°C° 0 mm 5 m/S 759 mmHg 13%
    14:00 +42°C° 0 mm 6 m/S 759 mmHg 13%
    15:00 +42°C° 0 mm 6 m/S 758 mmHg 12%
    16:00 +41°C° 0 mm 6 m/S 759 mmHg 14%
    17:00 +40°C° 0 mm 6 m/S 759 mmHg 15%
    18:00 +38°C° 0 mm 6 m/S 759 mmHg 16%
    19:00 +35°C° 0 mm 5 m/S 759 mmHg 18%
    20:00 +33°C° 0 mm 5 m/S 760 mmHg 20%
    21:00 +30°C° 0 mm 4 m/S 761 mmHg 22%
    22:00 +29°C° 0 mm 4 m/S 761 mmHg 24%
    23:00 +28°C° 0 mm 3 m/S 761 mmHg 26%

    Morgen, 25 August, Freitag

    Zeit Temperatur Niederschläge Wind Luftdruck Luftfeuchtigkeit
    00:00 +28°C° 0 mm 2 m/S 761 mmHg 28%
    01:00 +27°C° 0 mm 2 m/S 761 mmHg 29%
    02:00 +26°C° 0 mm 2 m/S 761 mmHg 31%
    03:00 +26°C° 0 mm 1 m/S 761 mmHg 32%
    04:00 +26°C° 0 mm 1 m/S 761 mmHg 32%
    05:00 +26°C° 0 mm 1 m/S 762 mmHg 32%
    06:00 +26°C° 0 mm 1 m/S 762 mmHg 33%
    07:00 +28°C° 0 mm 1 m/S 762 mmHg 28%
    08:00 +31°C° 0 mm 1 m/S 762 mmHg 24%
    09:00 +34°C° 0 mm 2 m/S 761 mmHg 19%
    10:00 +36°C° 0 mm 2 m/S 761 mmHg 17%
    11:00 +37°C° 0 mm 3 m/S 761 mmHg 14%
    12:00 +38°C° 0 mm 3 m/S 760 mmHg 12%
    13:00 +40°C° 0 mm 4 m/S 760 mmHg 11%
    14:00 +41°C° 0 mm 5 m/S 759 mmHg 11%
    15:00 +42°C° 0 mm 5 m/S 759 mmHg 10%
    16:00 +40°C° 0 mm 5 m/S 759 mmHg 11%
    17:00 +39°C° 0 mm 5 m/S 759 mmHg 12%
    18:00 +37°C° 0 mm 5 m/S 759 mmHg 13%
    19:00 +35°C° 0 mm 5 m/S 760 mmHg 17%
    20:00 +33°C° 0 mm 5 m/S 761 mmHg 21%
    21:00 +30°C° 0 mm 5 m/S 761 mmHg 25%
    22:00 +29°C° 0 mm 4 m/S 761 mmHg 28%
    23:00 +28°C° 0 mm 3 m/S 761 mmHg 31%

    übermorgen, 26 August, Samstag

    Zeit Temperatur Niederschläge Wind Luftdruck Luftfeuchtigkeit
    00:00 +28°C° 0 mm 3 m/S 761 mmHg 34%
    01:00 +27°C° 0 mm 2 m/S 762 mmHg 35%
    02:00 +27°C° 0 mm 2 m/S 762 mmHg 35%
    03:00 +26°C° 0 mm 2 m/S 762 mmHg 35%
    04:00 +26°C° 0 mm 1 m/S 762 mmHg 35%
    05:00 +26°C° 0 mm 1 m/S 762 mmHg 35%
    06:00 +26°C° 0 mm 1 m/S 762 mmHg 35%
    07:00 +28°C° 0 mm 1 m/S 762 mmHg 32%
    08:00 +30°C° 0 mm 2 m/S 762 mmHg 28%
    09:00 +34°C° 0 mm 2 m/S 762 mmHg 25%
    10:00 +35°C° 0 mm 3 m/S 761 mmHg 22%
    11:00 +36°C° 0 mm 3 m/S 760 mmHg 20%
    12:00 +38°C° 0 mm 3 m/S 760 mmHg 17%
    13:00 +38°C° 0 mm 4 m/S 760 mmHg 16%
    14:00 +40°C° 0 mm 4 m/S 759 mmHg 15%
    15:00 +40°C° 0 mm 5 m/S 759 mmHg 14%
    16:00 +38°C° 0 mm 4 m/S 759 mmHg 16%
    17:00 +37°C° 0 mm 4 m/S 759 mmHg 17%
    18:00 +36°C° 0 mm 4 m/S 759 mmHg 19%
    19:00 +35°C° 0 mm 4 m/S 760 mmHg 23%
    20:00 +33°C° 0 mm 4 m/S 760 mmHg 26%
    21:00 +30°C° 0 mm 5 m/S 761 mmHg 30%
    22:00 +29°C° 0 mm 4 m/S 761 mmHg 34%
    23:00 +28°C° 0 mm 3 m/S 760 mmHg 37%

    27 August, Sonntag

    Zeit Temperatur Niederschläge Wind Luftdruck Luftfeuchtigkeit
    00:00 +27°C° 0 mm 3 m/S 760 mmHg 41%
    01:00 +27°C° 0 mm 2 m/S 760 mmHg 43%
    02:00 +26°C° 0 mm 2 m/S 760 mmHg 44%
    03:00 +26°C° 0 mm 2 m/S 760 mmHg 46%
    04:00 +26°C° 0 mm 1 m/S 760 mmHg 46%
    05:00 +26°C° 0 mm 1 m/S 760 mmHg 47%
    06:00 +26°C° 0 mm 1 m/S 761 mmHg 47%
    07:00 +28°C° 0 mm 1 m/S 760 mmHg 43%
    08:00 +30°C° 0 mm 2 m/S 760 mmHg 38%
    09:00 +32°C° 0 mm 2 m/S 760 mmHg 34%
    10:00 +34°C° 0 mm 2 m/S 760 mmHg 30%
    11:00 +35°C° 0 mm 3 m/S 759 mmHg 27%
    12:00 +37°C° 0 mm 3 m/S 759 mmHg 23%
    13:00 +37°C° 0 mm 3 m/S 758 mmHg 22%
    14:00 +38°C° 0 mm 4 m/S 758 mmHg 21%
    15:00 +40°C° 0 mm 4 m/S 758 mmHg 19%
    16:00 +38°C° 0 mm 4 m/S 758 mmHg 20%
    17:00 +37°C° 0 mm 4 m/S 758 mmHg 22%
    18:00 +36°C° 0 mm 4 m/S 758 mmHg 23%
    19:00 +34°C° 0 mm 4 m/S 759 mmHg 28%
    20:00 +33°C° 0 mm 5 m/S 759 mmHg 32%
    21:00 +30°C° 0 mm 5 m/S 760 mmHg 37%
    22:00 +29°C° 0 mm 4 m/S 760 mmHg 41%
    23:00 +28°C° 0 mm 3 m/S 760 mmHg 44%

    28 August, Montag

    Zeit Temperatur Niederschläge Wind Luftdruck Luftfeuchtigkeit
    00:00 +27°C° 0 mm 3 m/S 760 mmHg 48%
    01:00 +27°C° 0 mm 2 m/S 760 mmHg 49%
    02:00 +26°C° 0 mm 2 m/S 760 mmHg 50%
    03:00 +26°C° 0 mm 2 m/S 760 mmHg 52%
    04:00 +26°C° 0 mm 1 m/S 760 mmHg 51%
    05:00 +26°C° 0 mm 1 m/S 760 mmHg 50%
    06:00 +26°C° 0 mm 1 m/S 760 mmHg 49%
    07:00 +28°C° 0 mm 1 m/S 760 mmHg 44%
    08:00 +30°C° 0 mm 2 m/S 760 mmHg 38%
    09:00 +32°C° 0 mm 2 m/S 759 mmHg 33%
    10:00 +34°C° 0 mm 2 m/S 759 mmHg 30%
    11:00 +35°C° 0 mm 2 m/S 758 mmHg 27%
    12:00 +37°C° 0 mm 3 m/S 758 mmHg 25%
    13:00 +37°C° 0 mm 3 m/S 757 mmHg 23%
    14:00 +38°C° 0 mm 3 m/S 757 mmHg 22%
    15:00 +40°C° 0 mm 4 m/S 756 mmHg 20%
    16:00 +38°C° 0 mm 4 m/S 757 mmHg 21%
    17:00 +37°C° 0 mm 4 m/S 757 mmHg 22%
    18:00 +36°C° 0 mm 4 m/S 757 mmHg 23%
    19:00 +34°C° 0 mm 4 m/S 757 mmHg 26%
    20:00 +33°C° 0 mm 4 m/S 758 mmHg 28%
    21:00 +30°C° 0 mm 4 m/S 758 mmHg 31%
    22:00 +29°C° 0 mm 3 m/S 758 mmHg 34%
    23:00 +28°C° 0 mm 3 m/S 758 mmHg 37%

    29 August, Dienstag

    Zeit Temperatur Niederschläge Wind Luftdruck Luftfeuchtigkeit
    00:00 +27°C° 0 mm 2 m/S 758 mmHg 40%
    01:00 +27°C° 0 mm 2 m/S 758 mmHg 42%
    02:00 +26°C° 0 mm 2 m/S 758 mmHg 43%
    03:00 +26°C° 0 mm 1 m/S 758 mmHg 45%
    04:00 +26°C° 0 mm 1 m/S 758 mmHg 44%
    05:00 +26°C° 0 mm 1 m/S 758 mmHg 44%
    06:00 +26°C° 0 mm 1 m/S 758 mmHg 43%
    07:00 +28°C° 0 mm 1 m/S 758 mmHg 39%
    08:00 +30°C° 0 mm 2 m/S 758 mmHg 34%
    09:00 +32°C° 0 mm 2 m/S 757 mmHg 29%
    10:00 +34°C° 0 mm 2 m/S 757 mmHg 26%
    11:00 +36°C° 0 mm 2 m/S 756 mmHg 24%
    12:00 +36°C° 0 mm 1 m/S 756 mmHg 21%
    13:00 +37°C° 0 mm 1 m/S 755 mmHg 20%
    14:00 +38°C° 0 mm 2 m/S 754 mmHg 19%
    15:00 +39°C° 0 mm 2 m/S 754 mmHg 19%
    16:00 +37°C° 0 mm 1 m/S 754 mmHg 20%
    17:00 +36°C° 0 mm 1 m/S 754 mmHg 22%
    18:00 +35°C° 0 mm 1 m/S 754 mmHg 23%
    19:00 +34°C° 0 mm 1 m/S 754 mmHg 25%
    20:00 +32°C° 0 mm 2 m/S 755 mmHg 27%
    21:00 +31°C° 0 mm 2 m/S 755 mmHg 29%
    22:00 +30°C° 0 mm 2 m/S 755 mmHg 30%
    23:00 +29°C° 0 mm 2 m/S 755 mmHg 32%
    Mehr zeigen